DW5566 Rabat MA current weather conditions

sailwx.info

Wind from 207

Air temperature 17.8° C
Dewpoint 16.6° C

Last reported at 2017-Sep-20 23:01 UTC.
Time now 2017-Sep-20 23:33 UTC

Location: N 33°54' W 006°59'.
View on Google Maps.

See reports from other nearby stations

  
Tides and Currents Weather Stations Pressure Air Temp Water Temp Dewpoint Dewpoint Depression Visibility Wind Speed Wind Dir Waves Ship Positions
date/time (UTC)wind fromknots sea level pressurealtimeterstation pressurevisibilityair tempwater tempwave heightnotes
2017-Sep-20 23:01 207 17.8
2017-Sep-20 22:47 199 18.3
2017-Sep-20 22:31 141 18.3
2017-Sep-20 22:16 169 18.3
2017-Sep-20 22:01 142 18.3
2017-Sep-20 21:46 167 18.9
2017-Sep-20 21:31 217 19.4
2017-Sep-20 21:16 220 19.4
2017-Sep-20 21:01 221 19.4
2017-Sep-20 20:46 345 20.0
2017-Sep-20 20:31 345 20.0
2017-Sep-20 20:17 345 20.0
2017-Sep-20 20:01 345 20.0
2017-Sep-20 19:46 345 20.6
2017-Sep-20 19:31 345 20.6
2017-Sep-20 19:16 345 20.6
2017-Sep-20 19:01 345 21.1
2017-Sep-20 18:46 345 21.1
2017-Sep-20 18:31 345 21.1
2017-Sep-20 18:16 352 21.7
2017-Sep-20 18:01 354 21.7
2017-Sep-20 17:46 347 22.2
2017-Sep-20 17:31 354 22.2
2017-Sep-20 17:16 355 22.2
2017-Sep-20 17:01 341 22.2
2017-Sep-20 16:46 350 22.2
2017-Sep-20 16:31 347 22.2
2017-Sep-20 16:16 328 22.2
2017-Sep-20 16:01 319 22.2
2017-Sep-20 15:46 308 22.2
2017-Sep-20 15:31 310 22.2
2017-Sep-20 15:16 345 21.7
2017-Sep-20 15:01 343 2 gusting 4 21.7
2017-Sep-20 14:46 345 21.7
2017-Sep-20 14:30 314 21.7
2017-Sep-20 14:15 318 1 gusting 4 21.7
2017-Sep-20 14:00 314 2 gusting 5 21.1
2017-Sep-20 13:45 324 4 gusting 6 21.1
2017-Sep-20 13:30 318 3 gusting 6 21.1
2017-Sep-20 13:15 310 3 gusting 6 21.1
2017-Sep-20 13:00 307 4 gusting 6 21.1
2017-Sep-20 12:45 312 5 gusting 6 20.6
2017-Sep-20 12:30 297 5 gusting 6 20.6
2017-Sep-20 12:16 296 4 gusting 6 20.6
2017-Sep-20 12:00 286 4 gusting 6 20.6
2017-Sep-20 11:45 307 3 gusting 6 20.6
2017-Sep-20 11:30 298 3 gusting 5 21.1
2017-Sep-20 11:15 305 3 gusting 5 21.1
2017-Sep-20 11:00 312 2 gusting 4 20.6
2017-Sep-20 10:45 313 2 gusting 5 20.6
2017-Sep-20 10:30 297 3 gusting 4 20.6
2017-Sep-20 10:15 307 2 gusting 4 20.6
2017-Sep-20 10:00 297 2 gusting 4 20.6
2017-Sep-20 09:45 300 2 gusting 4 20.6
2017-Sep-20 09:30 314 1 gusting 3 20.6
2017-Sep-20 09:15 335 1 gusting 2 20.0
2017-Sep-20 09:00 355 20.0
2017-Sep-20 08:45 324 20.0
2017-Sep-20 08:30 112 20.0
2017-Sep-20 08:15 138 20.0
2017-Sep-20 08:00 136 18.9
2017-Sep-20 07:45 153 18.9
2017-Sep-20 07:30 113 18.3
2017-Sep-20 07:15 132 17.8
2017-Sep-20 07:00 146 17.2
2017-Sep-20 06:45 142 16.1
2017-Sep-20 06:30 128 16.1
2017-Sep-20 06:15 170 16.1
2017-Sep-20 06:00 169 16.1
2017-Sep-20 05:45 157 16.1
2017-Sep-20 05:30 147 16.1
2017-Sep-20 05:15 137 16.7
2017-Sep-20 05:00 151 16.7
2017-Sep-20 04:45 159 16.7
2017-Sep-20 04:30 153 16.7
2017-Sep-20 04:15 144 16.7
2017-Sep-20 04:00 144 16.7
2017-Sep-20 03:44 139 16.7
2017-Sep-20 03:32 150 16.7
2017-Sep-20 03:20 150 16.7
2017-Sep-20 03:00 148 17.2
2017-Sep-20 02:44 147 17.2
2017-Sep-20 02:29 153 17.2
2017-Sep-20 02:14 150 17.2
2017-Sep-20 01:59 088 17.2
2017-Sep-20 01:44 088 17.2
2017-Sep-20 01:29 088 17.2
2017-Sep-20 01:14 088 17.8
2017-Sep-20 00:59 088 17.8
2017-Sep-20 00:44 088 17.8
2017-Sep-20 00:29 088 18.3
2017-Sep-20 00:14 088 18.3
2017-Sep-19 23:59 088 18.9
2017-Sep-19 23:44 088 19.4
2017-Sep-19 23:29 088 20.0
2017-Sep-19 23:14 067 20.0
2017-Sep-19 22:59 067 20.0
2017-Sep-19 22:44 068 20.0
2017-Sep-19 22:29 067 20.0
2017-Sep-19 22:14 051 20.0
2017-Sep-19 21:59 043 20.6
2017-Sep-19 21:44 012 20.6
2017-Sep-19 21:29 034 0 gusting 2 20.6
2017-Sep-19 21:14 039 1 gusting 3 20.6
2017-Sep-19 20:59 045 20.6
2017-Sep-19 20:44 034 20.6
2017-Sep-19 20:29 038 21.1
2017-Sep-19 20:14 034 21.1
2017-Sep-19 19:59 055 21.1
2017-Sep-19 19:44 021 21.1
2017-Sep-19 19:29 069 21.1
2017-Sep-19 19:14 033 21.1
2017-Sep-19 18:59 035 21.1
2017-Sep-19 18:44 032 21.7
2017-Sep-19 18:29 024 0 gusting 2 21.7
2017-Sep-19 18:14 058 21.7
2017-Sep-19 17:59 033 2 gusting 3 21.7
2017-Sep-19 17:44 010 22.2
2017-Sep-19 17:29 015 2 gusting 4 22.2
2017-Sep-19 17:14 354 2 gusting 3 22.2
2017-Sep-19 16:59 013 2 gusting 4 22.2
2017-Sep-19 16:44 357 2 gusting 4 22.2
2017-Sep-19 16:29 002 2 gusting 5 22.2
2017-Sep-19 16:14 011 3 gusting 6 22.2
2017-Sep-19 15:59 031 4 gusting 6 22.2
2017-Sep-19 15:43 352 5 gusting 6 22.2
2017-Sep-19 15:28 354 4 gusting 6 22.2
2017-Sep-19 15:13 358 4 gusting 6 22.2
2017-Sep-19 14:58 349 5 gusting 6 21.7
2017-Sep-19 14:43 350 5 gusting 6 22.2
2017-Sep-19 14:28 354 4 gusting 6 21.7
2017-Sep-19 14:13 340 4 gusting 6 22.2
2017-Sep-19 13:58 341 4 gusting 6 21.7
2017-Sep-19 13:43 335 5 gusting 6 21.7
2017-Sep-19 13:28 322 4 gusting 6 21.7
2017-Sep-19 13:13 323 4 gusting 6 21.7
2017-Sep-19 12:58 331 4 gusting 6 21.7
2017-Sep-19 12:43 338 5 gusting 6 21.7
2017-Sep-19 12:28 327 5 gusting 7 21.7
2017-Sep-19 12:13 342 5 gusting 7 21.7
2017-Sep-19 11:58 342 6 gusting 6 21.7
2017-Sep-19 11:43 344 4 gusting 6 21.7
2017-Sep-19 11:28 001 4 gusting 6 21.7
2017-Sep-19 11:13 345 5 gusting 6 21.7
2017-Sep-19 10:58 349 4 gusting 6 21.7
2017-Sep-19 10:43 357 4 gusting 6 22.2
2017-Sep-19 10:28 348 4 gusting 6 22.2
2017-Sep-19 10:13 038 2 gusting 5 22.8
2017-Sep-19 09:58 018 2 gusting 6 22.8
2017-Sep-19 09:43 356 3 gusting 5 22.2
2017-Sep-19 09:28 029 2 gusting 5 22.2
2017-Sep-19 09:13 347 22.2
2017-Sep-19 08:58 023 2 gusting 4 22.2
2017-Sep-19 08:43 072 22.2
2017-Sep-19 08:28 117 0 gusting 5 21.7
2017-Sep-19 08:13 072 0 gusting 4 21.1
2017-Sep-19 07:58 141 1 gusting 5 20.6
2017-Sep-19 07:42 172 19.4
2017-Sep-19 07:27 149 0 gusting 4 18.9
2017-Sep-19 07:12 131 0 gusting 3 18.3
2017-Sep-19 06:57 198 0 gusting 4 17.8
2017-Sep-19 06:42 109 17.8
2017-Sep-19 06:27 141 17.8
2017-Sep-19 06:12 150 17.8
2017-Sep-19 05:57 137 17.8
2017-Sep-19 05:42 156 0 gusting 2 18.3
2017-Sep-19 05:27 153 18.3
2017-Sep-19 05:12 144 17.8
2017-Sep-19 04:57 148 17.8
2017-Sep-19 04:42 140 17.8
2017-Sep-19 04:27 091 17.8
2017-Sep-19 04:12 132 17.2
2017-Sep-19 03:57 160 17.2
2017-Sep-19 03:42 112 17.2
2017-Sep-19 03:27 132 16.7
2017-Sep-19 03:12 186 16.7
2017-Sep-19 02:57 135 16.1
2017-Sep-19 02:42 134 16.1
2017-Sep-19 02:27 113 16.1
2017-Sep-19 02:12 105 16.1
2017-Sep-19 01:57 147 16.1
2017-Sep-19 01:42 216 16.7
2017-Sep-19 01:27 130 16.7
2017-Sep-19 01:12 139 16.7
2017-Sep-19 00:57 134 16.7
2017-Sep-19 00:42 129 16.7
2017-Sep-19 00:27 134 16.7
2017-Sep-19 00:12 131 16.7
2017-Sep-18 23:57 139 16.7
2017-Sep-18 23:42 134 16.7
2017-Sep-18 23:27 119 17.2
2017-Sep-18 23:12 130 17.2